• In Romania
  • List of Countries
  • For 7 days
  • Water Temperature
  • Satellite Maps
  • Weather Map
  • Weather Widgets
  • user-avatar
    Login

    Hourly Weather Szentendre

    Today, 22 July, Sunday

    Time Temperature Precipitation Wind Pressure Humidity
    00:00 +22°C° 0.7 mm 1 mps 744 mmHg 78%
    01:00 +20°C° 0.7 mm 2 mps 744 mmHg 82%
    02:00 +21°C° 0.3 mm 1 mps 744 mmHg 83%
    03:00 +21°C° 0.3 mm 1 mps 744 mmHg 84%
    04:00 +21°C° 0.3 mm 1 mps 744 mmHg 85%
    05:00 +21°C° 0.3 mm 1 mps 744 mmHg 83%
    06:00 +22°C° 0.3 mm 1 mps 744 mmHg 82%
    07:00 +23°C° 0.3 mm 2 mps 744 mmHg 81%
    08:00 +24°C° 0.1 mm 2 mps 744 mmHg 73%
    09:00 +26°C° 0.1 mm 2 mps 744 mmHg 66%
    10:00 +27°C° 0.1 mm 2 mps 744 mmHg 59%
    11:00 +28°C° 0.2 mm 2 mps 744 mmHg 56%
    12:00 +29°C° 0.2 mm 3 mps 744 mmHg 53%
    13:00 +30°C° 0.2 mm 3 mps 744 mmHg 50%
    14:00 +30°C° 0.1 mm 3 mps 743 mmHg 50%
    15:00 +30°C° 0.1 mm 3 mps 743 mmHg 51%
    16:00 +30°C° 0.1 mm 3 mps 743 mmHg 51%
    17:00 +28°C° 0.1 mm 3 mps 743 mmHg 57%
    18:00 +27°C° 0.1 mm 3 mps 743 mmHg 63%
    19:00 +25°C° 0.1 mm 3 mps 743 mmHg 69%
    20:00 +24°C° 0 mm 3 mps 743 mmHg 73%
    21:00 +22°C° 0 mm 3 mps 743 mmHg 76%
    22:00 +21°C° 0 mm 3 mps 743 mmHg 80%
    23:00 +21°C° 0.3 mm 2 mps 743 mmHg 83%

    Tomorrow, 23 July, Monday

    Time Temperature Precipitation Wind Pressure Humidity
    00:00 +21°C° 0.3 mm 1 mps 743 mmHg 86%
    01:00 +21°C° 0.3 mm 1 mps 743 mmHg 88%
    02:00 +20°C° 0.2 mm 1 mps 743 mmHg 90%
    03:00 +19°C° 0.2 mm 2 mps 743 mmHg 91%
    04:00 +19°C° 0.2 mm 2 mps 743 mmHg 92%
    05:00 +20°C° 0.3 mm 2 mps 743 mmHg 89%
    06:00 +21°C° 0.3 mm 3 mps 743 mmHg 86%
    07:00 +22°C° 0.3 mm 3 mps 743 mmHg 83%
    08:00 +24°C° 1 mm 3 mps 743 mmHg 78%
    09:00 +25°C° 1 mm 4 mps 743 mmHg 74%
    10:00 +26°C° 1 mm 4 mps 743 mmHg 69%
    11:00 +27°C° 1 mm 4 mps 743 mmHg 65%
    12:00 +28°C° 1 mm 4 mps 743 mmHg 61%
    13:00 +29°C° 1 mm 4 mps 743 mmHg 57%
    14:00 +29°C° 0.2 mm 3 mps 743 mmHg 54%
    15:00 +29°C° 0.2 mm 3 mps 743 mmHg 52%
    16:00 +30°C° 0.2 mm 3 mps 743 mmHg 49%
    17:00 +29°C° 0 mm 3 mps 743 mmHg 53%
    18:00 +28°C° 0 mm 3 mps 743 mmHg 57%
    19:00 +27°C° 0 mm 3 mps 744 mmHg 60%
    20:00 +25°C° 0 mm 3 mps 744 mmHg 63%
    21:00 +24°C° 0 mm 3 mps 744 mmHg 66%
    22:00 +22°C° 0 mm 3 mps 745 mmHg 69%
    23:00 +21°C° 0 mm 3 mps 745 mmHg 71%

    Day after tomorrow, 24 July, Tuesday

    Time Temperature Precipitation Wind Pressure Humidity
    00:00 +21°C° 0 mm 3 mps 745 mmHg 73%
    01:00 +20°C° 0 mm 2 mps 745 mmHg 75%
    02:00 +20°C° 0 mm 2 mps 745 mmHg 77%
    03:00 +19°C° 0 mm 3 mps 745 mmHg 78%
    04:00 +19°C° 0 mm 3 mps 745 mmHg 80%
    05:00 +20°C° 0 mm 3 mps 745 mmHg 76%
    06:00 +21°C° 0 mm 3 mps 745 mmHg 72%
    07:00 +22°C° 0 mm 3 mps 745 mmHg 68%
    08:00 +25°C° 0 mm 3 mps 745 mmHg 62%
    09:00 +27°C° 0 mm 3 mps 745 mmHg 56%
    10:00 +28°C° 0 mm 3 mps 745 mmHg 50%
    11:00 +29°C° 0 mm 3 mps 745 mmHg 47%
    12:00 +30°C° 0 mm 3 mps 745 mmHg 44%
    13:00 +31°C° 0 mm 3 mps 745 mmHg 41%
    14:00 +31°C° 0 mm 3 mps 744 mmHg 41%
    15:00 +31°C° 0 mm 3 mps 744 mmHg 41%
    16:00 +31°C° 0 mm 3 mps 744 mmHg 41%
    17:00 +29°C° 0 mm 3 mps 744 mmHg 46%
    18:00 +28°C° 0 mm 2 mps 744 mmHg 52%
    19:00 +27°C° 0 mm 2 mps 744 mmHg 57%
    20:00 +26°C° 0 mm 2 mps 745 mmHg 61%
    21:00 +24°C° 0 mm 2 mps 745 mmHg 65%
    22:00 +23°C° 0 mm 2 mps 745 mmHg 68%
    23:00 +23°C° 0 mm 2 mps 745 mmHg 70%

    25 July, Wednesday

    Time Temperature Precipitation Wind Pressure Humidity
    00:00 +21°C° 0 mm 2 mps 745 mmHg 71%
    01:00 +21°C° 0 mm 2 mps 745 mmHg 72%
    02:00 +20°C° 0 mm 2 mps 745 mmHg 74%
    03:00 +20°C° 0 mm 2 mps 745 mmHg 75%
    04:00 +19°C° 0 mm 2 mps 745 mmHg 76%
    05:00 +21°C° 0 mm 2 mps 746 mmHg 72%
    06:00 +23°C° 0 mm 2 mps 746 mmHg 69%
    07:00 +24°C° 0 mm 2 mps 746 mmHg 65%
    08:00 +26°C° 0 mm 2 mps 746 mmHg 59%
    09:00 +28°C° 0 mm 2 mps 746 mmHg 53%
    10:00 +29°C° 0 mm 2 mps 746 mmHg 47%
    11:00 +30°C° 0 mm 2 mps 746 mmHg 45%
    12:00 +31°C° 0 mm 2 mps 745 mmHg 42%
    13:00 +31°C° 0 mm 2 mps 745 mmHg 40%
    14:00 +32°C° 0 mm 2 mps 745 mmHg 39%
    15:00 +32°C° 0 mm 2 mps 745 mmHg 39%
    16:00 +32°C° 0 mm 2 mps 745 mmHg 38%
    17:00 +30°C° 0 mm 2 mps 745 mmHg 44%
    18:00 +29°C° 0 mm 1 mps 745 mmHg 49%
    19:00 +27°C° 0 mm 1 mps 745 mmHg 54%
    20:00 +26°C° 0 mm 1 mps 745 mmHg 58%
    21:00 +25°C° 0 mm 1 mps 745 mmHg 62%
    22:00 +24°C° 0 mm 2 mps 746 mmHg 65%
    23:00 +24°C° 0 mm 1 mps 746 mmHg 67%

    26 July, Thursday

    Time Temperature Precipitation Wind Pressure Humidity
    00:00 +23°C° 0 mm 1 mps 745 mmHg 70%
    01:00 +23°C° 0 mm 1 mps 745 mmHg 72%
    02:00 +22°C° 0 mm 1 mps 746 mmHg 73%
    03:00 +22°C° 0 mm 1 mps 746 mmHg 74%
    04:00 +21°C° 0 mm 1 mps 746 mmHg 76%
    05:00 +23°C° 0.1 mm 1 mps 746 mmHg 73%
    06:00 +24°C° 0.1 mm 2 mps 746 mmHg 69%
    07:00 +25°C° 0.1 mm 2 mps 746 mmHg 66%
    08:00 +27°C° 0 mm 2 mps 746 mmHg 60%
    09:00 +28°C° 0 mm 2 mps 746 mmHg 54%
    10:00 +30°C° 0 mm 2 mps 746 mmHg 48%
    11:00 +31°C° 0.1 mm 2 mps 746 mmHg 46%
    12:00 +31°C° 0.1 mm 2 mps 746 mmHg 44%
    13:00 +32°C° 0.1 mm 2 mps 746 mmHg 42%
    14:00 +32°C° 0 mm 2 mps 746 mmHg 43%
    15:00 +32°C° 0 mm 2 mps 746 mmHg 43%
    16:00 +32°C° 0 mm 2 mps 745 mmHg 43%
    17:00 +31°C° 0 mm 2 mps 746 mmHg 47%
    18:00 +29°C° 0 mm 1 mps 746 mmHg 51%
    19:00 +28°C° 0 mm 1 mps 746 mmHg 55%
    20:00 +27°C° 0 mm 1 mps 746 mmHg 58%
    21:00 +26°C° 0 mm 2 mps 746 mmHg 62%
    22:00 +25°C° 0 mm 2 mps 746 mmHg 65%
    23:00 +25°C° 0 mm 2 mps 746 mmHg 67%

    27 July, Friday

    Time Temperature Precipitation Wind Pressure Humidity
    00:00 +24°C° 0 mm 1 mps 746 mmHg 70%
    01:00 +23°C° 0 mm 1 mps 746 mmHg 72%
    02:00 +23°C° 0 mm 1 mps 746 mmHg 73%
    03:00 +23°C° 0 mm 1 mps 746 mmHg 74%
    04:00 +22°C° 0 mm 1 mps 746 mmHg 75%
    05:00 +23°C° 0 mm 1 mps 746 mmHg 72%
    06:00 +25°C° 0 mm 1 mps 747 mmHg 69%
    07:00 +26°C° 0 mm 2 mps 747 mmHg 65%
    08:00 +27°C° 0 mm 2 mps 747 mmHg 60%
    09:00 +29°C° 0 mm 2 mps 747 mmHg 55%
    10:00 +30°C° 0 mm 2 mps 747 mmHg 50%
    11:00 +31°C° 0 mm 2 mps 746 mmHg 48%
    12:00 +31°C° 0 mm 2 mps 746 mmHg 46%
    13:00 +32°C° 0 mm 2 mps 746 mmHg 44%
    14:00 +32°C° 0 mm 2 mps 746 mmHg 44%
    15:00 +32°C° 0 mm 1 mps 746 mmHg 44%
    16:00 +32°C° 0 mm 1 mps 746 mmHg 44%
    17:00 +31°C° 0.1 mm 1 mps 746 mmHg 48%
    18:00 +30°C° 0.1 mm 1 mps 745 mmHg 52%
    19:00 +28°C° 0.1 mm 1 mps 745 mmHg 56%
    20:00 +28°C° 0.8 mm 1 mps 746 mmHg 60%
    21:00 +27°C° 0.8 mm 1 mps 746 mmHg 64%
    22:00 +26°C° 0.8 mm 1 mps 746 mmHg 67%
    23:00 +25°C° 0.5 mm 1 mps 746 mmHg 70%
    Show more